sat.trackr.live / text

‹ back to catalog

ONEWEB-0525

NORAD 54143 · 2022-138AG

PAYLOAD ACTIVE UNKNOWN

§ Identity

Operator
Country
UK
Launch date
2022-10-22
Launch site
SRILR
Launch vehicle
Mass (kg)
RCS (m²)

Purposes: comms

External: N2YO · Heavens-Above · Gunter

§ Orbital elements

Epoch: 2026-05-25T04:32:03.227136Z

Period
109.11 min
Inclination
87.9159°
Eccentricity
0.0001666
Mean motion
13.19733805 rev/d
Perigee alt
1,184.5 km
Apogee alt
1,187.0 km
Semi-major
7,563.9 km
B*
-5.1298e-3
RAAN
309.5482°
Arg perigee
87.8130°
Mean anomaly
272.3193°
Rev number
17,379

§ Raw data

ONEWEB-05251 54143U 22138AG  26145.18892624 -.00002041  00000+0 -51298-2 0  99962 54143  87.9159 309.5482 0001666  87.8130 272.3193 13.19733805173799

JSON: /api/v1/satellites/54143 · /tle

For live sub-satellite position, see the globe view (requires WebGL).

§ Visibility from observer

Set your observer location to see the next 7 days of passes ≥ 10°. The values pass through the URL so the page stays shareable.

No JS? Fill the form by hand. The geolocation button needs JavaScript.